Time,TemperatureF,DewpointF,PressureIn,WindDirection,WindDirectionDegrees,WindSpeedMPH,WindSpeedGustMPH,Humidity,HourlyPrecipIn,Conditions,Clouds,dailyrainin,SoftwareType,DateUTC
2013-01-29 00:12:00,37.0,34.0,-100.00,WSW,250,11.0,16.0,91,-99.99,,,-99.99,,2013-01-29 05:12:00,
2013-01-29 00:21:00,37.0,34.0,-100.00,WSW,250,11.0,16.0,91,-99.99,,,-99.99,,2013-01-29 05:21:00,
2013-01-29 00:31:00,37.0,34.0,-100.00,WSW,250,11.0,16.0,91,-99.99,,,-99.99,,2013-01-29 05:31:00,
2013-01-29 00:42:00,37.0,34.0,-100.00,West,260,11.0,13.0,91,-99.99,,,-99.99,,2013-01-29 05:42:00,
2013-01-29 00:52:00,37.0,34.0,-100.00,West,260,11.0,13.0,91,-99.99,,,-99.99,,2013-01-29 05:52:00,
2013-01-29 01:01:00,37.0,34.0,-100.00,West,260,11.0,13.0,91,-99.99,,,-99.99,,2013-01-29 06:01:00,
2013-01-29 01:11:00,37.0,35.0,-100.00,WSW,250,11.0,13.0,91,-99.99,,,-99.99,,2013-01-29 06:11:00,
2013-01-29 01:21:00,37.0,35.0,-100.00,WSW,250,11.0,13.0,91,-99.99,,,-99.99,,2013-01-29 06:21:00,
2013-01-29 01:31:00,37.0,35.0,-100.00,WSW,250,11.0,13.0,91,-99.99,,,-99.99,,2013-01-29 06:31:00,
2013-01-29 01:41:00,37.0,35.0,-100.00,WSW,250,11.0,13.0,91,-99.99,,,-99.99,,2013-01-29 06:41:00,
2013-01-29 01:52:00,37.0,35.0,-100.00,WSW,250,11.0,11.0,91,-99.99,,,-99.99,,2013-01-29 06:52:00,
2013-01-29 02:01:00,37.0,35.0,-100.00,WSW,250,11.0,11.0,91,-99.99,,,-99.99,,2013-01-29 07:01:00,
2013-01-29 02:11:00,37.0,35.0,-100.00,West,260,11.0,11.0,91,-99.99,,,-99.99,,2013-01-29 07:11:00,
2013-01-29 02:21:00,37.0,35.0,-100.00,West,260,11.0,11.0,91,-99.99,,,-99.99,,2013-01-29 07:21:00,
2013-01-29 02:31:00,37.0,35.0,-100.00,West,260,11.0,11.0,91,-99.99,,,-99.99,,2013-01-29 07:31:00,
2013-01-29 02:41:00,37.0,35.0,-100.00,West,270,7.0,9.0,92,-99.99,,,-99.99,,2013-01-29 07:41:00,
2013-01-29 02:51:00,37.0,35.0,-100.00,West,270,7.0,9.0,92,-99.99,,,-99.99,,2013-01-29 07:51:00,
2013-01-29 03:01:00,37.0,35.0,-100.00,West,270,7.0,9.0,92,-99.99,,,-99.99,,2013-01-29 08:01:00,
2013-01-29 03:11:00,37.0,35.0,-100.00,NW,310,7.0,7.0,92,-99.99,,,-99.99,,2013-01-29 08:11:00,
2013-01-29 03:21:00,37.0,35.0,-100.00,NW,310,7.0,7.0,92,-99.99,,,-99.99,,2013-01-29 08:21:00,
2013-01-29 03:31:00,37.0,35.0,-100.00,NW,310,7.0,7.0,92,-99.99,,,-99.99,,2013-01-29 08:31:00,
2013-01-29 03:41:00,37.0,35.0,-100.00,NW,310,7.0,7.0,92,-99.99,,,-99.99,,2013-01-29 08:41:00,
2013-01-29 03:51:00,37.0,35.0,-100.00,NW,310,4.0,4.0,91,-99.99,,,-99.99,,2013-01-29 08:51:00,
2013-01-29 04:01:00,37.0,35.0,-100.00,NW,310,4.0,4.0,91,-99.99,,,-99.99,,2013-01-29 09:01:00,
2013-01-29 04:11:00,37.0,35.0,-100.00,NNW,330,2.0,4.0,91,-99.99,,,-99.99,,2013-01-29 09:11:00,
2013-01-29 04:21:00,37.0,35.0,-100.00,NNW,330,2.0,4.0,91,-99.99,,,-99.99,,2013-01-29 09:21:00,
2013-01-29 04:31:00,37.0,35.0,-100.00,NNW,330,2.0,4.0,91,-99.99,,,-99.99,,2013-01-29 09:31:00,
2013-01-29 04:41:00,37.0,35.0,-100.00,NNW,330,2.0,4.0,91,-99.99,,,-99.99,,2013-01-29 09:41:00,
2013-01-29 04:51:00,37.0,35.0,-100.00,WSW,240,2.0,4.0,91,-99.99,,,-99.99,,2013-01-29 09:51:00,
2013-01-29 05:01:00,37.0,35.0,-100.00,WSW,240,2.0,4.0,91,-99.99,,,-99.99,,2013-01-29 10:01:00,
2013-01-29 05:11:00,36.0,35.0,-100.00,SW,230,4.0,7.0,93,-99.99,,,-99.99,,2013-01-29 10:11:00,
2013-01-29 05:21:00,36.0,35.0,-100.00,SW,230,4.0,7.0,93,-99.99,,,-99.99,,2013-01-29 10:21:00,
2013-01-29 05:32:00,36.0,35.0,-100.00,SW,230,4.0,7.0,93,-99.99,,,-99.99,,2013-01-29 10:32:00,
2013-01-29 05:41:00,36.0,35.0,-100.00,SW,230,4.0,7.0,93,-99.99,,,-99.99,,2013-01-29 10:41:00,
2013-01-29 05:51:00,37.0,35.0,-100.00,SW,230,7.0,9.0,93,-99.99,,,-99.99,,2013-01-29 10:51:00,
2013-01-29 06:01:00,37.0,35.0,-100.00,SW,230,7.0,9.0,93,-99.99,,,-99.99,,2013-01-29 11:01:00,
2013-01-29 06:11:00,37.0,35.0,-100.00,SW,230,9.0,11.0,93,-99.99,,,-99.99,,2013-01-29 11:11:00,
2013-01-29 06:21:00,37.0,35.0,-100.00,SW,230,9.0,11.0,93,-99.99,,,-99.99,,2013-01-29 11:21:00,
2013-01-29 06:31:00,37.0,35.0,-100.00,SW,230,9.0,11.0,93,-99.99,,,-99.99,,2013-01-29 11:31:00,
2013-01-29 06:41:00,37.0,35.0,-100.00,SW,230,9.0,11.0,93,-99.99,,,-99.99,,2013-01-29 11:41:00,
2013-01-29 06:52:00,37.0,36.0,-100.00,WSW,240,7.0,9.0,93,-99.99,,,-99.99,,2013-01-29 11:52:00,
2013-01-29 07:02:00,37.0,36.0,-100.00,WSW,240,7.0,9.0,93,-99.99,,,-99.99,,2013-01-29 12:02:00,
2013-01-29 07:11:00,37.0,36.0,-100.00,WSW,250,7.0,9.0,94,-99.99,,,-99.99,,2013-01-29 12:11:00,
2013-01-29 07:21:00,37.0,36.0,-100.00,WSW,250,7.0,9.0,94,-99.99,,,-99.99,,2013-01-29 12:21:00,
2013-01-29 07:32:00,37.0,36.0,-100.00,WSW,250,7.0,9.0,94,-99.99,,,-99.99,,2013-01-29 12:32:00,
2013-01-29 07:42:00,37.0,36.0,-100.00,WSW,250,7.0,9.0,94,-99.99,,,-99.99,,2013-01-29 12:42:00,
2013-01-29 07:52:00,38.0,37.0,-100.00,North,0,0.0,2.0,94,-99.99,,,-99.99,,2013-01-29 12:52:00,
2013-01-29 08:01:00,38.0,37.0,-100.00,North,0,0.0,2.0,94,-99.99,,,-99.99,,2013-01-29 13:01:00,
2013-01-29 08:11:00,37.0,36.0,-100.00,East,90,9.0,13.0,95,-99.99,,,-99.99,,2013-01-29 13:11:00,
2013-01-29 08:22:00,37.0,36.0,-100.00,East,90,9.0,13.0,95,-99.99,,,-99.99,,2013-01-29 13:22:00,
2013-01-29 08:31:00,37.0,36.0,-100.00,East,90,9.0,13.0,95,-99.99,,,-99.99,,2013-01-29 13:31:00,
2013-01-29 08:42:00,37.0,36.0,-100.00,East,90,9.0,13.0,95,-99.99,,,-99.99,,2013-01-29 13:42:00,
2013-01-29 08:52:00,37.0,36.0,-100.00,East,90,7.0,9.0,95,-99.99,,,-99.99,,2013-01-29 13:52:00,
2013-01-29 09:01:00,37.0,36.0,-100.00,East,90,7.0,9.0,95,-99.99,,,-99.99,,2013-01-29 14:01:00,
2013-01-29 09:11:00,37.0,35.0,-100.00,East,80,11.0,13.0,94,-99.99,,,-99.99,,2013-01-29 14:11:00,
2013-01-29 09:21:00,37.0,35.0,-100.00,East,80,11.0,13.0,94,-99.99,,,-99.99,,2013-01-29 14:21:00,
2013-01-29 09:32:00,37.0,35.0,-100.00,East,80,11.0,13.0,94,-99.99,,,-99.99,,2013-01-29 14:32:00,
2013-01-29 09:42:00,37.0,35.0,-100.00,East,80,11.0,13.0,94,-99.99,,,-99.99,,2013-01-29 14:42:00,
2013-01-29 09:52:00,36.0,35.0,-100.00,East,80,16.0,16.0,94,-99.99,,,-99.99,,2013-01-29 14:52:00,
2013-01-29 10:01:00,36.0,35.0,-100.00,East,80,16.0,16.0,94,-99.99,,,-99.99,,2013-01-29 15:01:00,
2013-01-29 10:11:00,36.0,35.0,-100.00,East,80,16.0,16.0,94,-99.99,,,-99.99,,2013-01-29 15:11:00,
2013-01-29 10:21:00,35.0,33.0,-100.00,ENE,70,13.0,16.0,92,-99.99,,,-99.99,,2013-01-29 15:21:00,
2013-01-29 10:32:00,35.0,33.0,-100.00,ENE,70,13.0,16.0,92,-99.99,,,-99.99,,2013-01-29 15:32:00,
2013-01-29 10:42:00,35.0,33.0,-100.00,ENE,70,13.0,16.0,92,-99.99,,,-99.99,,2013-01-29 15:42:00,
2013-01-29 10:52:00,36.0,34.0,-100.00,ENE,70,16.0,18.0,91,-99.99,,,-99.99,,2013-01-29 15:52:00,
2013-01-29 11:01:00,36.0,34.0,-100.00,ENE,70,16.0,18.0,91,-99.99,,,-99.99,,2013-01-29 16:01:00,
2013-01-29 11:11:00,36.0,34.0,-100.00,East,80,13.0,18.0,93,-99.99,,,-99.99,,2013-01-29 16:11:00,
2013-01-29 11:21:00,36.0,34.0,-100.00,East,80,13.0,18.0,93,-99.99,,,-99.99,,2013-01-29 16:21:00,
2013-01-29 11:31:00,36.0,34.0,-100.00,East,80,13.0,18.0,93,-99.99,,,-99.99,,2013-01-29 16:31:00,
2013-01-29 11:42:00,36.0,34.0,-100.00,East,80,13.0,18.0,93,-99.99,,,-99.99,,2013-01-29 16:42:00,
2013-01-29 11:52:00,35.0,33.0,-100.00,ENE,70,13.0,16.0,93,-99.99,,,-99.99,,2013-01-29 16:52:00,
2013-01-29 12:02:00,35.0,33.0,-100.00,ENE,70,13.0,16.0,93,-99.99,,,-99.99,,2013-01-29 17:02:00,
2013-01-29 12:11:00,35.0,33.0,-100.00,East,80,13.0,13.0,92,-99.99,,,-99.99,,2013-01-29 17:11:00,
2013-01-29 12:21:00,35.0,33.0,-100.00,East,80,13.0,13.0,92,-99.99,,,-99.99,,2013-01-29 17:21:00,
2013-01-29 12:31:00,35.0,33.0,-100.00,East,80,13.0,13.0,92,-99.99,,,-99.99,,2013-01-29 17:31:00,
2013-01-29 12:41:00,36.0,34.0,-100.00,ENE,70,13.0,16.0,92,-99.99,,,-99.99,,2013-01-29 17:41:00,
2013-01-29 12:52:00,36.0,34.0,-100.00,ENE,70,13.0,16.0,92,-99.99,,,-99.99,,2013-01-29 17:52:00,
2013-01-29 13:11:00,36.0,34.0,-100.00,ENE,70,13.0,16.0,92,-99.99,,,-99.99,,2013-01-29 18:11:00,
2013-01-29 13:21:00,36.0,34.0,-100.00,ENE,70,13.0,16.0,92,-99.99,,,-99.99,,2013-01-29 18:21:00,
2013-01-29 13:33:00,36.0,34.0,-100.00,ENE,70,13.0,16.0,92,-99.99,,,-99.99,,2013-01-29 18:33:00,
2013-01-29 13:41:00,36.0,34.0,-100.00,ENE,70,13.0,16.0,92,-99.99,,,-99.99,,2013-01-29 18:41:00,
2013-01-29 13:51:00,36.0,34.0,-100.00,East,80,13.0,16.0,93,-99.99,,,-99.99,,2013-01-29 18:51:00,
2013-01-29 14:00:00,36.0,34.0,-100.00,East,80,9.0,13.0,93,-99.99,,,-99.99,,2013-01-29 19:00:00,
2013-01-29 14:01:00,36.0,34.0,-100.00,East,80,13.0,16.0,93,-99.99,,,-99.99,,2013-01-29 19:01:00,
2013-01-29 14:11:00,36.0,34.0,-100.00,East,90,11.0,11.0,94,-99.99,,,-99.99,,2013-01-29 19:11:00,
2013-01-29 14:22:00,36.0,34.0,-100.00,East,90,11.0,11.0,94,-99.99,,,-99.99,,2013-01-29 19:22:00,
2013-01-29 14:31:00,36.0,34.0,-100.00,East,90,11.0,11.0,94,-99.99,,,-99.99,,2013-01-29 19:31:00,
2013-01-29 14:41:00,36.0,34.0,-100.00,East,90,11.0,11.0,94,-99.99,,,-99.99,,2013-01-29 19:41:00,
2013-01-29 14:51:00,36.0,34.0,-100.00,East,80,9.0,13.0,93,-99.99,,,-99.99,,2013-01-29 19:51:00,
2013-01-29 15:00:00,36.0,35.0,-100.00,ENE,60,11.0,13.0,93,-99.99,,,-99.99,,2013-01-29 20:00:00,
2013-01-29 15:11:00,36.0,35.0,-100.00,ENE,70,11.0,13.0,94,-99.99,,,-99.99,,2013-01-29 20:11:00,
2013-01-29 15:30:00,36.0,35.0,-100.00,East,80,13.0,16.0,94,-99.99,,,-99.99,,2013-01-29 20:30:00,
2013-01-29 15:52:00,36.0,35.0,-100.00,ENE,60,11.0,13.0,93,-99.99,,,-99.99,,2013-01-29 20:52:00,
2013-01-29 16:52:00,36.0,35.0,-100.00,East,90,13.0,16.0,95,-99.99,,,-99.99,,2013-01-29 21:52:00,
2013-01-29 17:01:00,36.0,35.0,-100.00,East,80,11.0,16.0,95,-99.99,,,-99.99,,2013-01-29 22:01:00,
2013-01-29 17:11:00,36.0,35.0,-100.00,ENE,70,11.0,13.0,95,-99.99,,,-99.99,,2013-01-29 22:11:00,
2013-01-29 17:21:00,36.0,35.0,-100.00,ENE,70,11.0,13.0,95,-99.99,,,-99.99,,2013-01-29 22:21:00,
2013-01-29 17:32:00,36.0,35.0,-100.00,ENE,70,11.0,13.0,94,-99.99,,,-99.99,,2013-01-29 22:32:00,
2013-01-29 17:41:00,37.0,35.0,-100.00,ENE,70,11.0,13.0,94,-99.99,,,-99.99,,2013-01-29 22:41:00,
2013-01-29 17:52:00,37.0,35.0,-100.00,ENE,70,11.0,13.0,94,-99.99,,,-99.99,,2013-01-29 22:52:00,
2013-01-29 18:01:00,37.0,35.0,-100.00,ENE,70,11.0,13.0,94,-99.99,,,-99.99,,2013-01-29 23:01:00,
2013-01-29 18:11:00,37.0,36.0,-100.00,NE,50,11.0,13.0,94,-99.99,,,-99.99,,2013-01-29 23:11:00,
2013-01-29 18:21:00,37.0,36.0,-100.00,NE,50,11.0,13.0,94,-99.99,,,-99.99,,2013-01-29 23:21:00,
2013-01-29 18:31:00,37.0,36.0,-100.00,NE,50,11.0,13.0,94,-99.99,,,-99.99,,2013-01-29 23:31:00,
2013-01-29 18:41:00,37.0,36.0,-100.00,NE,50,11.0,13.0,94,-99.99,,,-99.99,,2013-01-29 23:41:00,
2013-01-29 18:52:00,37.0,36.0,-100.00,ENE,70,9.0,11.0,95,-99.99,,,-99.99,,2013-01-29 23:52:00,
2013-01-29 19:00:00,37.0,36.0,-100.00,East,100,9.0,11.0,97,-99.99,,,-99.99,,2013-01-30 00:00:00,
2013-01-29 19:01:00,37.0,36.0,-100.00,ENE,70,9.0,11.0,95,-99.99,,,-99.99,,2013-01-30 00:01:00,
2013-01-29 19:11:00,37.0,36.0,-100.00,East,100,9.0,13.0,96,-99.99,,,-99.99,,2013-01-30 00:11:00,
2013-01-29 19:21:00,37.0,36.0,-100.00,East,100,9.0,13.0,96,-99.99,,,-99.99,,2013-01-30 00:21:00,
2013-01-29 19:31:00,37.0,36.0,-100.00,East,100,9.0,13.0,96,-99.99,,,-99.99,,2013-01-30 00:31:00,
2013-01-29 19:42:00,37.0,36.0,-100.00,East,100,9.0,11.0,97,-99.99,,,-99.99,,2013-01-30 00:42:00,
2013-01-29 19:52:00,37.0,36.0,-100.00,East,100,9.0,11.0,97,-99.99,,,-99.99,,2013-01-30 00:52:00,
2013-01-29 20:11:00,37.0,36.0,-100.00,ENE,60,7.0,9.0,97,-99.99,,,-99.99,,2013-01-30 01:11:00,
2013-01-29 20:22:00,37.0,36.0,-100.00,ENE,60,7.0,9.0,97,-99.99,,,-99.99,,2013-01-30 01:22:00,
2013-01-29 20:31:00,37.0,36.0,-100.00,ENE,60,7.0,9.0,97,-99.99,,,-99.99,,2013-01-30 01:31:00,
2013-01-29 20:42:00,37.0,37.0,-100.00,ENE,60,7.0,7.0,97,-99.99,,,-99.99,,2013-01-30 01:42:00,
2013-01-29 20:51:00,37.0,37.0,-100.00,ENE,60,7.0,7.0,97,-99.99,,,-99.99,,2013-01-30 01:51:00,
2013-01-29 21:01:00,37.0,37.0,-100.00,ENE,60,7.0,7.0,97,-99.99,,,-99.99,,2013-01-30 02:01:00,
2013-01-29 21:11:00,37.0,36.0,-100.00,NE,50,7.0,9.0,97,-99.99,,,-99.99,,2013-01-30 02:11:00,
2013-01-29 21:21:00,37.0,36.0,-100.00,NE,50,7.0,9.0,97,-99.99,,,-99.99,,2013-01-30 02:21:00,
2013-01-29 21:32:00,37.0,36.0,-100.00,NE,50,7.0,9.0,97,-99.99,,,-99.99,,2013-01-30 02:32:00,
2013-01-29 21:41:00,37.0,36.0,-100.00,NE,50,7.0,9.0,97,-99.99,,,-99.99,,2013-01-30 02:41:00,
2013-01-29 21:52:00,37.0,36.0,-100.00,NE,50,9.0,9.0,97,-99.99,,,-99.99,,2013-01-30 02:52:00,
2013-01-29 22:02:00,37.0,36.0,-100.00,NE,50,9.0,9.0,97,-99.99,,,-99.99,,2013-01-30 03:02:00,
2013-01-29 22:11:00,37.0,37.0,-100.00,ENE,70,9.0,11.0,97,-99.99,,,-99.99,,2013-01-30 03:11:00,
2013-01-29 22:21:00,37.0,37.0,-100.00,ENE,70,9.0,11.0,97,-99.99,,,-99.99,,2013-01-30 03:21:00,
2013-01-29 22:31:00,37.0,37.0,-100.00,ENE,70,9.0,11.0,97,-99.99,,,-99.99,,2013-01-30 03:31:00,
2013-01-29 22:41:00,37.0,37.0,-100.00,ENE,70,9.0,11.0,97,-99.99,,,-99.99,,2013-01-30 03:41:00,
2013-01-29 22:51:00,37.0,37.0,-100.00,ENE,70,11.0,13.0,98,-99.99,,,-99.99,,2013-01-30 03:51:00,
2013-01-29 23:01:00,37.0,37.0,-100.00,ENE,70,11.0,13.0,98,-99.99,,,-99.99,,2013-01-30 04:01:00,
2013-01-29 23:11:00,37.0,36.0,-100.00,East,80,9.0,11.0,97,-99.99,,,-99.99,,2013-01-30 04:11:00,
2013-01-29 23:21:00,37.0,36.0,-100.00,East,80,9.0,11.0,97,-99.99,,,-99.99,,2013-01-30 04:21:00,
2013-01-29 23:31:00,37.0,36.0,-100.00,East,80,9.0,11.0,97,-99.99,,,-99.99,,2013-01-30 04:31:00,
2013-01-29 23:41:00,37.0,36.0,-100.00,East,80,9.0,11.0,97,-99.99,,,-99.99,,2013-01-30 04:41:00,
2013-01-29 23:51:00,37.0,36.0,-100.00,ENE,70,9.0,11.0,97,-99.99,,,-99.99,,2013-01-30 04:51:00,